Location: Aranbee
(34.0885°N, 118.2342°W)
Time: 23:21:12
(UTC+00:00)

Vanguard 1 Rocket - Visible Passes

Search period start: 25 November 2020 00:00
Search period end: 05 December 2020 00:00
Orbit: 656 x 4221 km, 34.3° (Epoch: 25 November)

Date Brightness Start Highest point End Pass type
(mag) Time Alt. Az. Time Alt. Az. Time Alt. Az.
25 Nov 11.5 07:43:16 15° E 07:43:16 15° E 07:45:37 10° E visible
25 Nov 10.2 10:00:33 67° ESE 10:00:33 67° ESE 10:14:53 10° ENE visible
25 Nov 9.6 12:17:51 36° W 12:29:06 89° N 12:41:05 10° E visible
26 Nov 11.7 05:54:19 10° S 06:36:06 - ENE 05:54:21 10° S visible
26 Nov 10.8 08:53:23 38° E 08:53:23 38° E 09:02:31 10° ENE visible
26 Nov 9.9 11:10:40 67° WSW 11:15:07 86° SSE 11:29:48 10° E visible
26 Nov 9.4 13:27:57 15° W 13:45:23 86° S 13:55:15 10° ESE visible
27 Nov 11.4 07:46:11 17° E 07:46:11 17° E 07:49:08 10° ENE visible
27 Nov 10.1 10:03:27 71° ESE 10:03:27 71° ESE 10:18:02 10° ENE visible
27 Nov 9.7 12:20:44 36° W 12:32:08 89° N 12:44:21 10° E visible
28 Nov 11.6 05:54:43 10° S 06:38:55 - ENE 05:56:29 13° S visible
28 Nov 10.8 08:56:12 40° E 08:56:12 40° E 09:05:39 10° ENE visible
28 Nov 9.9 11:13:29 67° W 11:18:01 89° S 11:33:00 10° E visible
28 Nov 9.5 13:30:46 15° W 13:48:23 81° SSW 13:58:27 10° ESE visible
29 Nov 11.5 04:46:29 10° SSE 04:49:01 13° SSE 04:49:01 13° SSE visible
29 Nov 11.4 07:48:56 19° E 07:48:56 19° E 07:52:24 10° ENE visible
29 Nov 10.1 10:06:12 74° E 10:06:12 74° E 10:21:10 10° E visible
29 Nov 9.7 12:23:29 36° W 12:35:10 89° S 12:47:35 10° E visible
30 Nov 11.4 05:55:45 10° SSW 06:41:38 - ENE 05:58:51 16° SSW visible
30 Nov 10.7 08:58:54 42° E 08:58:54 42° E 09:08:44 10° ENE visible
30 Nov 9.9 11:16:10 66° W 11:20:58 89° N 11:36:13 10° E visible
30 Nov 9.5 13:33:27 15° WNW 13:51:17 74° SSW 14:01:34 10° ESE visible
01 Dec 11.3 04:46:22 10° S 04:51:30 18° SSE 04:51:30 18° SSE visible
01 Dec 11.4 07:51:35 20° E 07:51:35 20° E 07:55:31 10° ENE visible
01 Dec 10.1 10:08:51 76° E 10:08:51 76° E 10:24:18 10° E visible
01 Dec 9.7 12:26:08 36° W 12:38:08 86° SSW 12:50:48 10° ESE visible
02 Dec 11.4 03:41:01 10° SSE 03:44:10 12° SE 03:44:10 12° SE visible
02 Dec 11.3 05:57:14 10° SSW 06:44:16 - ENE 06:01:27 20° SSW visible
02 Dec 10.7 09:01:31 44° E 09:01:31 44° E 09:11:47 10° ENE visible
02 Dec 10.0 11:18:48 65° W 11:23:55 89° N 11:39:25 10° E visible
02 Dec 9.7 13:36:04 15° WNW 13:54:02 66° SSW 14:04:34 10° SE visible
03 Dec 11.1 04:47:08 10° S 04:54:10 24° S 04:54:10 24° S visible
03 Dec 11.4 07:11:06 10° SW 07:54:12 21° ENE 07:58:32 10° ENE visible
03 Dec 10.2 10:11:28 78° E 10:11:28 78° E 10:27:27 10° E visible
03 Dec 9.8 12:28:44 35° W 12:41:01 81° SSW 12:53:56 10° ESE visible
04 Dec 11.2 03:39:27 10° SSE 03:46:56 18° SE 03:46:56 18° SE visible
04 Dec 11.2 05:59:06 10° SW 06:46:52 - ENE 06:04:13 23° SSW visible
04 Dec 10.7 09:04:08 45° E 09:04:08 45° E 09:14:50 10° E visible
04 Dec 10.0 11:21:24 64° W 11:26:51 89° S 11:42:36 10° E visible
04 Dec 9.8 13:38:41 15° WNW 13:56:37 58° SW 14:07:25 10° SE visible
